Regional Weather Roundup
Issued by NWS

Home | Current Version | Previous Version | Text Only | Print | Product List | Glossary Off
Versions: 1 2 3 4 5 6 7 8 9 10 11 12 13 14 15 16 17 18 19 20 21 22 23 24 25 26 27 28 29 30 31 32 33 34 35 36 37 38 39 40 41 42 43 44 45 46 47 48 49 50

000
ASUS43 KIND 241759
RWRIN

WEATHER ROUNDUP FOR INDIANA
NATIONAL WEATHER SERVICE INDIANAPOLIS IN
200 PM EDT SUN JUL 24 2016

NOTE: "FAIR" INDICATES FEW OR NO CLOUDS BELOW 12,000 FEET WITH NO
SIGNIFICANT WEATHER AND/OR OBSTRUCTIONS TO VISIBILITY.

* - STATION DOES NOT REPORT WEATHER SUCH AS PRECIPITATION OR FOG.

+ - STATION NOT QUALITY CONTROLLED BY THE NATIONAL WEATHER SERVICE.
    USE DATA WITH CAUTION...ESPECIALLY DEWPOINT AND RELATIVE
    HUMIDITY OBSERVATIONS.

INZ001>003-010>013-019-020-241900-
NORTHWEST INDIANA

CITY           SKY/WX    TMP DP  RH WIND       PRES   REMARKS
GARY /AIRPORT/ CLOUDY    90 N/A N/A S14G25    29.92S

$$

LMZ046-743>745-241900-
SOUTHERN LAKE MICHIGAN

STATION/POSITION TIME  TEMP    WIND        PRES    WAVE
                       AIR SEA DIR/SP/G            HT
                 (UTC) (F)     (DEG/KT/KT) (MB)    (FT)
BURNS HARBOR     1700   86     190/ 11/ 21 1013.5F
MICHIGAN CITY    1700   84     180/ 16/ 19   N/A
5NW MICH CITY    1700   81 74  200/ 10/ 14   N/A     1

$$

INZ004-005-014>016-021>024-241900-
NORTH CENTRAL INDIANA

CITY           SKY/WX    TMP DP  RH WIND       PRES   REMARKS
ELKHART        MOSUNNY   84  81  89 SE8       29.98F HX  98
GOSHEN         PTSUNNY   85  75  72 E7        29.98F
6HR MIN TEMP:  72; 6HR MAX TEMP:  86;

SOUTH BEND     CLOUDY    85  75  72 SW12      29.96F
6HR MIN TEMP:  70; 6HR MAX TEMP:  85;


$$

INZ006>009-017-018-025>027-241900-
NORTHEAST INDIANA

CITY           SKY/WX    TMP DP  RH WIND       PRES   REMARKS
ANGOLA *+        N/A     79  72  78 VRB3      30.02S
FORT WAYNE     PTSUNNY   89  74  60 SW9       30.01R HX  98
6HR MIN TEMP:  72; 6HR MAX TEMP:  89;


$$

INZ028-029-035-036-043>045-051>053-241900-
WEST CENTRAL INDIANA

CITY           SKY/WX    TMP DP  RH WIND       PRES   REMARKS
CRAWFORDSVL +  MOSUNNY   87  79  76 SW8       29.99S HX 102
6HR MIN TEMP:  71; 6HR MAX TEMP:  87;

LAFAYETTE      MOSUNNY   89  77  67 SW13G18   29.96S HX 101
6HR MIN TEMP:  72; 6HR MAX TEMP:  89;

TERRE HAUTE    MOSUNNY   91  76  61 S8        29.98F HX 103
6HR MIN TEMP:  77; 6HR MAX TEMP:  92;


$$

INZ030>032-037>040-046>048-054>057-064-065-241900-
CENTRAL INDIANA

CITY           SKY/WX    TMP DP  RH WIND       PRES   REMARKS
COLUMBUS       MOSUNNY   90  79  70 S10       30.00F HX 105
INDIANAPOLIS   PTSUNNY   91  76  61 SW13      30.00S HX 103
6HR MIN TEMP:  77; 6HR MAX TEMP:  91;

-EAGLE CREEK   MOSUNNY   90  74  59 SW8       29.99S HX  99
6HR MIN TEMP:  77; 6HR MAX TEMP:  92;

KOKOMO *+      PTSUNNY   90  73  58 S13       29.99S HX  98
6HR MIN TEMP:  72; 6HR MAX TEMP:  91;

SHELBYVILLE    MOSUNNY   90  76  63 S10       29.99F HX 101
6HR MIN TEMP:  78; 6HR MAX TEMP:  90;


$$

INZ033-034-041-042-049-050-058-059-241900-
EAST CENTRAL INDIANA

CITY           SKY/WX    TMP DP  RH WIND       PRES   REMARKS
MUNCIE         CLOUDY    90  75  61 SW8       30.01S HX 100
6HR MIN TEMP:  77; 6HR MAX TEMP:  91;


$$

INZ060-061-067>069-081>083-085>088-241900-
SOUTHWEST INDIANA

CITY           SKY/WX    TMP DP  RH WIND       PRES   REMARKS
EVANSVILLE     MOSUNNY   90  76  63 SW12      30.00F HX 101
6HR MIN TEMP:  78; 6HR MAX TEMP:  91;

HUNTINGBURG *+ MOSUNNY   90  77  66 SW9       30.01S HX 102
6HR MIN TEMP:  77; 6HR MAX TEMP:  90;


$$

INZ062-063-066-070>080-084-089>092-241900-
SOUTH CENTRAL AND SOUTHEAST INDIANA

CITY           SKY/WX    TMP DP  RH WIND       PRES   REMARKS
BLOOMINGTON    PTSUNNY   89  77  67 SW9       30.01S HX 101
6HR MIN TEMP:  77; 6HR MAX TEMP:  90;

MADISON *+     MOSUNNY   91  72  52 S6        30.03F HX  98

$$




USA.gov is the U.S. government's official web portal to all federal, state and local government web resources and services.